COSMOS 252 DEB *, 3686

Orbit data source: Space-Track

COSMOS 252 DEB *, 3686 is space debris in LEO originally from a launch on Fri, 01 Nov 1968 UTC launched from the Tyuratam Missile And Space Complex (TTMTR). Debris objects in space refer to the collection of defunct objects orbiting the Earth. Examples of debris include non-operational satellites, rocket bodies, and fragments generated from explosions, collisions, or faulty payload assembly.

Loading next visibility...
Identifier
3686, 1968-097AD
Orbit
LEO
Country
Flag of CISCIS
Related business
Manufacturer
Unknown
Mission
Spacecraft
Bus & Motor
Unknown
Mass
Unknown
Launch date (UTC)
1968-11-01 (57 years ago)
Launch vehicle
Unknown
Launch site
Tyuratam Missile And Space Complex (TTMTR)
Object type
Payload
Rocket body
Debris
Shape & HBR
Unknown shape, 0.1 m
Radar Cross Section
Small (<0.1 m²)

Expand to show TLE details & history
Last TLE update: 1 day ago

TLE from 1 day ago
0 COSMOS 252 DEB *
1  3686U 68097AD  26105.55380236  .00001619  00000-0  15412-2 0  9991
2  3686  62.2618 262.5569 0634422 156.6518 206.4706 13.17644476688514
Epoch: 2026-04-15T13:17Z
TLE epoch observation values (Epoch: 2026-04-15T13:17:28.523Z)
Latitude
-0°
Longitude
-140.52599°
Altitude
1,631.015 km
Speed
6.851 km/s
True Right ascension
17h 30m 13s
True Declination
0° 00' 00"
Sunlit
Object was in daylight at epoch
Visualization orbit readout
Latitude
Unknown
Longitude
Unknown
Altitude
Unknown
Speed
Unknown
Apparent Right ascension
Unknown
Apparent Declination
Unknown
Sunlit
N/A
Visualization observer readout
Local Sidereal Time
00:04:20
Azimuth
Unknown
Elevation
Unknown
Doppler factor
Unknown
Orbital elements
Apogee altitude
1,673.022 km
Perigee altitude
712.4 km
Semi-major axis
7,570.848 km
Eccentricity
0.06344
Inclination
62.2618°
RAAN
262.5569°
Arg. of periapsis
156.6518°
True anomaly
203.4468°
Mean anomaly
206.4706°
Eccentric anomaly
204.93796°
Mean motion
3.29478 °/min
Orbital period
109.26 mins
BSTAR
0.0015412
Loading maneuver chart data...
Computing Atmospheric mass density...

Documentation

Showing up to 5 results
|